OE8NDR-11 Weather Reports


Display with metric or nautical units.
time (UTC)temp
F
wind
direction
speed
MPH
gust
MPH
rain 1hr
in
rain 24hr
in
rain mn
in
humidity
%
barometer
mb
20260502200319 57 131 4.0 5.0 0.00 0.00 0.00 65 1019.3
20260502195819 57 128 4.0 7.0 0.00 0.00 0.00 65 1019.3
20260502195319 58 134 3.0 5.0 0.00 0.00 0.00 65 1019.4
20260502194819 58 138 3.0 4.0 0.00 0.00 0.00 65 1019.4
20260502194319 58 138 4.0 5.0 0.00 0.00 0.00 64 1019.3
20260502193819 58 136 4.0 7.0 0.00 0.00 0.00 63 1019.3
20260502193319 59 131 3.0 4.0 0.00 0.00 0.00 62 1019.3
20260502192819 59 144 2.0 5.0 0.00 0.00 0.00 61 1019.4
20260502192319 60 109 2.0 2.0 0.00 0.00 0.00 60 1019.4
20260502191819 60 108 3.0 6.0 0.00 0.00 0.00 59 1019.4
20260502191319 60 115 3.0 7.0 0.00 0.00 0.00 59 1019.5
20260502190819 60 127 2.0 4.0 0.00 0.00 0.00 59 1019.5
20260502190319 60 136 3.0 4.0 0.00 0.00 0.00 59 1019.4
20260502185819 60 136 4.0 5.0 0.00 0.00 0.00 59 1019.4
20260502185319 60 130 2.0 5.0 0.00 0.00 0.00 61 1019.4
20260502184819 60 258 1.0 2.0 0.00 0.00 0.00 62 1019.4
20260502184319 60 276 1.0 3.0 0.00 0.00 0.00 63 1019.4
20260502183819 59 186 0.0 1.0 0.00 0.00 0.00 63 1019.3
20260502183319 59 186 1.0 2.0 0.00 0.00 0.00 63 1019.2
20260502182819 59 186 1.0 2.0 0.00 0.00 0.00 63 1019.1
20260502182319 59 186 1.0 1.0 0.00 0.00 0.00 63 1019.0
20260502181819 60 186 2.0 4.0 0.00 0.00 0.00 64 1019.0
20260502181319 60 194 2.0 4.0 0.00 0.00 0.00 64 1019.0
20260502180819 60 222 3.0 5.0 0.00 0.00 0.00 64 1018.9
20260502180319 60 263 5.0 8.0 0.00 0.00 0.00 63 1018.8
20260502170319 62 313 9.0 11.0 0.00 0.00 0.00 54 1018.7
20260502164319 63 302 8.0 9.0 0.00 0.00 0.00 51 1018.7
20260502163819 62 299 9.0 14.0 0.00 0.00 0.00 51 1018.7
20260502163319 62 312 10.0 13.0 0.00 0.00 0.00 51 1018.8
20260502162819 63 308 11.0 15.0 0.00 0.00 0.00 50 1018.7
20260502162319 63 313 11.0 15.0 0.00 0.00 0.00 51 1018.7
20260502161819 63 306 11.0 17.0 0.00 0.00 0.00 50 1018.7
20260502161319 63 313 11.0 15.0 0.00 0.00 0.00 51 1018.7
20260502160819 63 323 11.0 15.0 0.00 0.00 0.00 51 1018.7
20260502160319 63 311 12.0 16.0 0.00 0.00 0.00 50 1018.7
20260502152319 64 298 13.0 17.0 0.00 0.00 0.00 49 1018.8
20260502151819 64 297 13.0 19.0 0.00 0.00 0.00 47 1018.8
20260502151319 65 327 10.0 15.0 0.00 0.00 0.00 47 1018.6
20260502150819 65 319 10.0 14.0 0.00 0.00 0.00 46 1018.7
20260502150319 66 327 10.0 16.0 0.00 0.00 0.00 45 1018.8
20260502130319 67 52 7.0 12.0 0.00 0.00 0.00 34 1019.2
20260502123319 67 77 10.0 15.0 0.00 0.00 0.00 37 1019.5
20260502122819 67 65 9.0 15.0 0.00 0.00 0.00 34 1019.5
20260502122319 67 57 9.0 13.0 0.00 0.00 0.00 35 1019.5
20260502121819 67 59 9.0 14.0 0.00 0.00 0.00 35 1019.6
20260502121319 66 74 7.0 16.0 0.00 0.00 0.00 36 1019.7
20260502120819 67 65 6.0 13.0 0.00 0.00 0.00 40 1019.7
20260502120319 67 85 6.0 13.0 0.00 0.00 0.00 34 1019.7
20260502115820 67 51 6.0 12.0 0.00 0.00 0.00 38 1019.8
20260502115320 66 355 7.0 12.0 0.00 0.00 0.00 36 1019.8
20260502114820 66 19 6.0 14.0 0.00 0.00 0.00 40 1019.7
20260502114320 66 5 4.0 11.0 0.00 0.00 0.00 37 1019.8
20260502113820 65 287 5.0 8.0 0.00 0.00 0.00 37 1019.8
20260502113320 66 342 6.0 11.0 0.00 0.00 0.00 36 1020.0
20260502112820 66 345 7.0 12.0 0.00 0.00 0.00 37 1020.0
20260502112320 66 73 9.0 17.0 0.00 0.00 0.00 38 1020.1
20260502111820 66 63 10.0 14.0 0.00 0.00 0.00 35 1020.1
20260502111320 66 32 11.0 21.0 0.00 0.00 0.00 39 1020.2
20260502110820 65 57 11.0 21.0 0.00 0.00 0.00 35 1020.1
20260502110320 66 86 10.0 20.0 0.00 0.00 0.00 33 1020.3
20260502105820 66 13 11.0 17.0 0.00 0.00 0.00 35 1020.3
20260502105320 66 91 12.0 20.0 0.00 0.00 0.00 33 1020.3
20260502104820 66 90 14.0 17.0 0.00 0.00 0.00 36 1020.5
20260502104320 65 55 15.0 22.0 0.00 0.00 0.00 34 1020.4
20260502103820 65 80 12.0 21.0 0.00 0.00 0.00 34 1020.5
20260502103320 66 50 13.0 17.0 0.00 0.00 0.00 36 1020.5
20260502102820 65 82 13.0 20.0 0.00 0.00 0.00 36 1020.6
20260502102320 65 68 13.0 18.0 0.00 0.00 0.00 34 1020.5
20260502101820 64 89 15.0 24.0 0.00 0.00 0.00 32 1020.6
20260502101320 64 93 17.0 24.0 0.00 0.00 0.00 34 1020.6
20260502100820 64 95 16.0 25.0 0.00 0.00 0.00 33 1020.6
20260502100320 64 71 16.0 21.0 0.00 0.00 0.00 35 1020.7
20260502091320 63 66 12.0 22.0 0.00 0.00 0.00 38 1021.1
20260502090820 62 42 12.0 22.0 0.00 0.00 0.00 43 1021.1
20260502090320 62 90 14.0 22.0 0.00 0.00 0.00 39 1021.1
20260502071320 58 70 17.0 24.0 0.00 0.00 0.00 46 1021.8
20260502070820 58 64 17.0 24.0 0.00 0.00 0.00 45 1021.7
20260502070320 58 63 15.0 24.0 0.00 0.00 0.00 46 1021.6
20260502065820 58 104 14.0 24.0 0.00 0.00 0.00 46 1021.8
20260502065320 58 94 12.0 21.0 0.00 0.00 0.00 45 1021.8
20260502064820 58 83 11.0 16.0 0.00 0.00 0.00 47 1021.8
20260502064320 58 92 8.0 22.0 0.00 0.00 0.00 48 1021.9
20260502063820 58 81 6.0 13.0 0.00 0.00 0.00 47 1022.0
20260502063320 57 92 7.0 11.0 0.00 0.00 0.00 47 1022.1
20260502062820 57 69 6.0 12.0 0.00 0.00 0.00 47 1022.1
20260502062320 57 80 7.0 8.0 0.00 0.00 0.00 49 1022.0
20260502061820 57 94 12.0 14.0 0.00 0.00 0.00 48 1022.0
20260502061320 57 96 12.0 18.0 0.00 0.00 0.00 47 1022.0
20260502060820 57 108 10.0 18.0 0.00 0.00 0.00 47 1022.0
20260502060320 57 93 10.0 14.0 0.00 0.00 0.00 49 1021.9
20260502055820 56 95 10.0 16.0 0.00 0.00 0.00 48 1021.9
20260502055320 56 93 9.0 14.0 0.00 0.00 0.00 48 1021.9
20260502054820 56 92 9.0 13.0 0.00 0.00 0.00 48 1022.0
20260502054320 56 106 9.0 11.0 0.00 0.00 0.00 48 1022.0
20260502053820 56 135 9.0 16.0 0.00 0.00 0.00 47 1022.0
20260502053320 56 117 8.0 12.0 0.00 0.00 0.00 48 1022.1
20260502052820 56 117 7.0 11.0 0.00 0.00 0.00 49 1022.0
20260502052320 56 104 9.0 12.0 0.00 0.00 0.00 48 1022.0
20260502051820 56 105 9.0 14.0 0.00 0.00 0.00 47 1022.0
20260502051320 56 110 8.0 12.0 0.00 0.00 0.00 48 1021.9
20260502050820 56 96 9.0 13.0 0.00 0.00 0.00 49 1022.0
20260502045820 55 94 10.0 15.0 0.00 0.00 0.00 48 1021.9
20260502045320 55 98 8.0 16.0 0.00 0.00 0.00 48 1022.0
20260502044820 55 88 5.0 15.0 0.00 0.00 0.00 49 1021.9
20260502044320 55 81 6.0 7.0 0.00 0.00 0.00 49 1021.8
20260502043820 55 83 8.0 9.0 0.00 0.00 0.00 49 1021.8
20260502043320 55 91 8.0 13.0 0.00 0.00 0.00 48 1021.8
20260502042820 54 78 7.0 10.0 0.00 0.00 0.00 49 1021.7
20260502042320 54 92 7.0 10.0 0.00 0.00 0.00 48 1021.6
20260502041820 54 86 7.0 8.0 0.00 0.00 0.00 48 1021.6
20260502041320 53 98 7.0 9.0 0.00 0.00 0.00 49 1021.5
20260502040820 53 92 8.0 10.0 0.00 0.00 0.00 49 1021.4
20260502040320 53 98 8.0 10.0 0.00 0.00 0.00 50 1021.4
20260502035820 53 90 8.0 10.0 0.00 0.00 0.00 50 1021.4
20260502035320 53 75 8.0 11.0 0.00 0.00 0.00 50 1021.3
20260502034820 53 85 8.0 11.0 0.00 0.00 0.00 50 1021.4
20260502034320 53 92 9.0 11.0 0.00 0.00 0.00 50 1021.4
20260502033820 54 84 9.0 12.0 0.00 0.00 0.00 49 1021.3
20260502033320 54 90 9.0 13.0 0.00 0.00 0.00 49 1021.3
20260502032820 54 86 9.0 11.0 0.00 0.00 0.00 50 1021.3
20260502032320 54 88 11.0 12.0 0.00 0.00 0.00 50 1021.3
20260502031820 54 84 12.0 15.0 0.00 0.00 0.00 49 1021.2
20260502031320 54 94 11.0 18.0 0.00 0.00 0.00 50 1021.3
20260502030820 54 85 11.0 16.0 0.00 0.00 0.00 50 1021.2
20260502030320 54 96 11.0 16.0 0.00 0.00 0.00 50 1021.3
20260502025820 54 91 12.0 13.0 0.00 0.00 0.00 50 1021.2
20260502025320 55 100 12.0 15.0 0.00 0.00 0.00 49 1021.2
20260502024821 54 98 11.0 14.0 0.00 0.00 0.00 49 1021.1
20260502024321 54 86 11.0 15.0 0.00 0.00 0.00 50 1021.1
20260502023821 54 84 10.0 15.0 0.00 0.00 0.00 50 1021.1
20260502023321 54 84 10.0 13.0 0.00 0.00 0.00 50 1021.2
20260502022821 55 58 10.0 17.0 0.00 0.00 0.00 49 1021.2
20260502022321 55 64 10.0 15.0 0.00 0.00 0.00 49 1021.2
20260502021821 55 35 10.0 15.0 0.00 0.00 0.00 50 1021.1
20260502021321 54 74 10.0 17.0 0.00 0.00 0.00 50 1021.1
20260502020821 54 69 9.0 14.0 0.00 0.00 0.00 51 1021.1
20260502020321 54 70 7.0 13.0 0.00 0.00 0.00 51 1021.2
20260502015821 54 75 6.0 10.0 0.00 0.00 0.00 51 1021.1
20260502015321 54 59 5.0 9.0 0.00 0.00 0.00 51 1021.1
20260502014821 54 93 5.0 6.0 0.00 0.00 0.00 51 1021.2
20260502014321 54 85 5.0 7.0 0.00 0.00 0.00 51 1021.3
20260502013821 54 88 5.0 9.0 0.00 0.00 0.00 50 1021.3
20260502013321 54 75 4.0 7.0 0.00 0.00 0.00 50 1021.3
20260502012821 54 74 4.0 5.0 0.00 0.00 0.00 51 1021.4
20260502012321 54 78 5.0 5.0 0.00 0.00 0.00 50 1021.4
20260502011821 54 74 5.0 8.0 0.00 0.00 0.00 50 1021.5
20260502011321 55 78 5.0 12.0 0.00 0.00 0.00 49 1021.4
20260502010821 55 57 3.0 5.0 0.00 0.00 0.00 48 1021.4
20260502010321 55 67 2.0 3.0 0.00 0.00 0.00 48 1021.5
20260502005821 55 63 2.0 4.0 0.00 0.00 0.00 48 1021.4
20260502005321 55 69 3.0 4.0 0.00 0.00 0.00 48 1021.5
20260502004821 55 100 3.0 4.0 0.00 0.00 0.00 48 1021.5
20260502004321 55 61 4.0 4.0 0.00 0.00 0.00 48 1021.6
20260502003821 55 70 6.0 8.0 0.00 0.00 0.00 48 1021.6
20260502003321 55 78 6.0 8.0 0.00 0.00 0.00 49 1021.6
20260502002821 54 131 6.0 11.0 0.00 0.00 0.00 49 1021.6
20260502002321 55 62 6.0 8.0 0.00 0.00 0.00 48 1021.6
20260502001821 55 124 6.0 11.0 0.00 0.00 0.00 47 1021.6
20260502001321 55 107 5.0 12.0 0.00 0.00 0.00 47 1021.6
20260502000821 55 112 5.0 8.0 0.00 0.00 0.00 47 1021.6
20260502000321 55 115 5.0 8.0 0.00 0.00 0.00 47 1021.7
20260501235821 55 111 5.0 7.0 0.00 0.00 0.00 47 1021.8
20260501235321 55 122 5.0 8.0 0.00 0.00 0.00 47 1021.8
20260501234821 55 120 5.0 8.0 0.00 0.00 0.00 47 1021.8
20260501234321 55 101 6.0 7.0 0.00 0.00 0.00 47 1021.8
20260501233821 55 111 6.0 8.0 0.00 0.00 0.00 47 1021.9
20260501233321 55 98 6.0 9.0 0.00 0.00 0.00 47 1021.8
20260501232821 55 110 7.0 8.0 0.00 0.00 0.00 46 1021.9
20260501232321 55 107 7.0 9.0 0.00 0.00 0.00 46 1021.8
20260501231821 55 96 6.0 10.0 0.00 0.00 0.00 45 1022.0
20260501231321 55 108 5.0 7.0 0.00 0.00 0.00 45 1022.1
20260501230821 55 109 6.0 8.0 0.00 0.00 0.00 46 1022.0
20260501230321 55 86 6.0 11.0 0.00 0.00 0.00 45 1022.1
20260501225821 55 98 6.0 8.0 0.00 0.00 0.00 45 1022.1
20260501225321 55 98 6.0 8.0 0.00 0.00 0.00 45 1022.2
20260501224821 55 113 7.0 8.0 0.00 0.00 0.00 45 1022.2
20260501224321 55 105 6.0 8.0 0.00 0.00 0.00 45 1022.2
20260501223821 55 94 7.0 9.0 0.00 0.00 0.00 45 1022.3
20260501223321 55 88 8.0 12.0 0.00 0.00 0.00 45 1022.3
20260501222821 55 104 7.0 10.0 0.00 0.00 0.00 45 1022.4
20260501222321 55 103 7.0 9.0 0.00 0.00 0.00 45 1022.5
20260501221821 55 101 7.0 10.0 0.00 0.00 0.00 45 1022.5
20260501221321 55 94 7.0 9.0 0.00 0.00 0.00 46 1022.5
20260501220821 55 115 7.0 9.0 0.00 0.00 0.00 45 1022.5
20260501220321 55 104 7.0 8.0 0.00 0.00 0.00 45 1022.5
20260501215821 55 105 7.0 10.0 0.00 0.00 0.00 46 1022.5
20260501215321 55 97 7.0 11.0 0.00 0.00 0.00 45 1022.5
20260501214821 55 98 7.0 8.0 0.00 0.00 0.00 45 1022.5
20260501214321 55 103 6.0 9.0 0.00 0.00 0.00 45 1022.5
20260501213821 54 120 5.0 8.0 0.00 0.00 0.00 46 1022.5
20260501213321 54 127 6.0 7.0 0.00 0.00 0.00 47 1022.4
20260501212821 54 120 7.0 10.0 0.00 0.00 0.00 46 1022.4
20260501212321 54 110 7.0 10.0 0.00 0.00 0.00 46 1022.3
20260501211821 54 115 5.0 9.0 0.00 0.00 0.00 46 1022.3
20260501211321 54 107 4.0 7.0 0.00 0.00 0.00 46 1022.3
20260501210821 54 111 4.0 6.0 0.00 0.00 0.00 46 1022.3
20260501210321 54 107 4.0 6.0 0.00 0.00 0.00 45 1022.3
20260501205821 54 96 5.0 6.0 0.00 0.00 0.00 46 1022.2
20260501205321 55 107 6.0 8.0 0.00 0.00 0.00 45 1022.3
20260501204821 55 103 7.0 8.0 0.00 0.00 0.00 46 1022.2
20260501204321 55 98 7.0 10.0 0.00 0.00 0.00 45 1022.1
20260501203821 55 111 7.0 11.0 0.00 0.00 0.00 45 1022.1
20260501203321 55 117 6.0 10.0 0.00 0.00 0.00 44 1022.2
20260501202821 55 109 5.0 7.0 0.00 0.00 0.00 45 1022.2
20260501202321 55 109 5.0 7.0 0.00 0.00 0.00 45 1022.1
20260501201821 55 109 5.0 7.0 0.00 0.00 0.00 45 1022.1
20260501201321 55 93 6.0 7.0 0.00 0.00 0.00 45 1022.0
20260501200821 55 107 6.0 8.0 0.00 0.00 0.00 44 1022.0